sat.trackr.live / text

‹ back to catalog

2026-027B

NORAD 67747 · 2026-027B

PAYLOAD ACTIVE UNKNOWN

§ Identity

Operator
Country
PRC
Launch date
2026-02-12
Launch site
SCSLA
Launch vehicle
Mass (kg)
RCS (m²)

External: N2YO · Heavens-Above · Gunter

§ Orbital elements

Epoch: 2026-05-25T01:53:48.063264Z

Period
94.81 min
Inclination
97.5027°
Eccentricity
0.0008674
Mean motion
15.18899012 rev/d
Perigee alt
503.2 km
Apogee alt
515.1 km
Semi-major
6,887.3 km
B*
2.6573e-4
RAAN
273.4283°
Arg perigee
301.4039°
Mean anomaly
58.6346°
Rev number
1,545

§ Raw data

2026-027B1 67747U 26027B   26145.07902851  .00005480  00000+0  26573-3 0  99902 67747  97.5027 273.4283 0008674 301.4039  58.6346 15.18899012 15458

JSON: /api/v1/satellites/67747 · /tle

For live sub-satellite position, see the globe view (requires WebGL).

§ Visibility from observer

Set your observer location to see the next 7 days of passes ≥ 10°. The values pass through the URL so the page stays shareable.

No JS? Fill the form by hand. The geolocation button needs JavaScript.